TOURFACTS.DK  
Stats and Facts from Tour de France.

Tour de France 2018 starts in 167 days
  Riders   Stages   Teams   Summits   Yearly  


 
Search by year

 2017 - St.21:
 14824 starters.
  5132 different riders.
  635 teams.
  2232 stages.
  454 restdays.
  439589.60 km.
  5653 abandonnees.


Top 3
GC
Christopher Froome86:20:55
Rigoberto Uran86:21:49
Romain Bardet86:23:15
Climb
Warren Barguil169 pt.
Primoz Roglic80 pt.
Thomas De Gendt64 pt.
Sprint
Michael Matthews359 pt.
André Greipel234 pt.
Edvald Boasson Hagen220 pt.
Youth
Simon Yates86:27:09
Louis Meintjes86:29:15
Emanuel Buchmann86:54:16
Facts from Tour de France 1948
  |   Stages.  |   Stage winners.  |   Days in yellow  |   Average speed.  |   Route.  |   Teams.  |   All riders.  |   Rookies.  |   Withdrawls.  |  

  |   GC.  |   Polka  |   Green  |   White  |   Summits. (In tour)  |   Summits. (Points)  |   Miscellaneous.  |  

Stage 7 on 07 - 07 - 1948
         Owning:    Louison Bobet    
Pick a stage:  1 2 3 4 5 6 7 8 9 10 11 12 13 14 15 16 17 18 19 20 21
  BiarritzLourdes | Dist: 219.00 km.
Cat: 1Col de l'AubisqueFRABernard Gauthier
10 points
 

Average speed for all riders in stage:  31,663 km./hr.
    Place:Name:Team:Time:Km/h:
ITAGino BartaliITAItaly06:40:47  +  00:00:00=32,786 
FRAJean RobicFRAFrance06:40:47  +  00:00:00=32,786 
FRALouison BobetFRAFrance06:40:50  +  00:00:03=32,782 
4 FRABernard GauthierFRASouth-East06:41:35  +  00:00:48=32,720 
5 FRARaphaël GeminianiFRACenter-South West06:43:01  +  00:02:14=32,604 
6 FRALucien TeisseireFRAFrance06:43:09  +  00:02:22=32,593 
7 ITAGiordano CotturITAItaly06:43:09  +  00:02:22=32,593 
8 BELStan OckersBELBelgium06:43:09  +  00:02:22=32,593 
9 FRAPierre BaratinFRAIle De France-North East06:43:09  +  00:02:22=32,593 
10 ITAAldo RonconiITACadetti Italiens06:43:09  +  00:02:22=32,593 
11 ITAFermo CamelliniINTInternations06:43:09  +  00:02:22=32,593 
12 FRAJean-Apotre LazaridesFRAFrance06:43:20  +  00:02:33=32,579 
13 ITAGino SciardisINTInternations06:44:37  +  00:03:50=32,475 
14 FRAJean De GribaldyFRAIle De France-North East06:44:37  +  00:03:50=32,475 
15 FRAPierre CoganFRAWest06:44:37  +  00:03:50=32,475 
16 FRAAndré BruléFRAParis06:44:37  +  00:03:50=32,475 
17 LUXJean KirchenINTHolland-Luxembourg06:46:12  +  00:05:25=32,349 
18 FRARené ViettoFRAFrance06:46:36  +  00:05:49=32,317 
19 FRAGuy LapébieFRACenter-South West06:46:36  +  00:05:49=32,317 
20 MEXAttilio LambertiniITACadetti Italiens06:48:29  +  00:07:42=32,168 
21 ITABruno PasquiniITAItaly06:48:29  +  00:07:42=32,168 
22 BELJean EngelsBELAiglons Belges06:48:33  +  00:07:46=32,163 
23 BELLucien MathysBELAiglons Belges06:48:33  +  00:07:46=32,163 
24 FRARobert DesbatsFRACenter-South West06:48:33  +  00:07:46=32,163 
25 FRALouis ThiétardFRAParis06:48:33  +  00:07:46=32,163 
26 FRARaoul RemyFRASouth-East06:48:33  +  00:07:46=32,163 
27 FRAPaul GiguetFRAFrance06:48:33  +  00:07:46=32,163 
28 FRAMaurice DiotFRAParis06:49:57  +  00:09:10=32,053 
29 ITAAlfred MacorigFRACenter-South West06:49:57  +  00:09:10=32,053 
30 SUIPierre BrambillaINTInternations06:49:57  +  00:09:10=32,053 
31 FRARobert ChapatteFRAParis06:49:57  +  00:09:10=32,053 
32 BELRoger LambrechtINTInternations06:49:57  +  00:09:10=32,053 
33 NEDJoseph JanssenINTHolland-Luxembourg06:49:57  +  00:09:10=32,053 
34 FRAPierre MolinerisFRASouth-East06:49:57  +  00:09:10=32,053 
35 BELEdward Van DijckBELBelgium06:49:57  +  00:09:10=32,053 
36 BELMarcel DupontBELAiglons Belges06:49:57  +  00:09:10=32,053 
37 ITAPaul NeriINTInternations06:49:57  +  00:09:10=32,053 
38 BELLeon JomauxBELAiglons Belges06:51:26  +  00:10:39=31,937 
39 GEREdouard KlabinskiINTInternations06:51:26  +  00:10:39=31,937 
40 ITAGiuseppe TaccaINTInternations06:51:26  +  00:10:39=31,937 
41 FRAAmédée RollandFRASouth-East06:51:26  +  00:10:39=31,937 
42 BELBriek SchotteBELBelgium06:51:26  +  00:10:39=31,937 
43 ITAEgidio FeruglioITAItaly06:51:26  +  00:10:39=31,937 
44 ITAPrimo VolpiITAItaly06:51:26  +  00:10:39=31,937 
45 FRACamille DanguillaumeFRAFrance06:51:26  +  00:10:39=31,937 
46 BELRené MertensBELBelgium06:53:02  +  00:12:15=31,813 
47 FRAGeorges RamouluxFRACenter-South West06:53:02  +  00:12:15=31,813 
48 ITAGiovanni CorrieriITAItaly06:53:27  +  00:12:40=31,781 
49 FRARobert MignatFRAParis06:53:27  +  00:12:40=31,781 
50 BELAndré RosseelBELAiglons Belges06:53:27  +  00:12:40=31,781 
51 GERCésar MarcelakFRAIle De France-North East06:53:27  +  00:12:40=31,781 
52 FRAJean ReyFRASouth-East06:53:30  +  00:12:43=31,778 
53 BELRaymond ImpanisBELBelgium06:53:57  +  00:13:10=31,743 
54 FRARaymond GoussotFRAParis06:53:57  +  00:13:10=31,743 
55 FRAAlphonse De VreeseFRAIle De France-North East06:53:59  +  00:13:12=31,740 
56 ITASerifano BiagioniITAItaly06:54:37  +  00:13:50=31,692 
57 ITAUrbain CaffiFRAIle De France-North East06:54:37  +  00:13:50=31,692 
58 FRAJacques PrasFRACenter-South West06:54:40  +  00:13:53=31,688 
59 FRADaniel OrtsFRACenter-South West06:54:40  +  00:13:53=31,688 
60 FRAGeorges MartinFRASouth-East06:54:40  +  00:13:53=31,688 
61 FRAKléber PiotFRAParis06:54:40  +  00:13:53=31,688 
62 FRAYvan MarieFRAWest06:55:38  +  00:14:51=31,614 
63 FRAJacques MarinelliFRAParis06:55:38  +  00:14:51=31,614 
64 NEDWim De RuyterINTHolland-Luxembourg06:55:38  +  00:14:51=31,614 
65 NEDHenk de HoogINTHolland-Luxembourg06:56:14  +  00:15:27=31,569 
66 FRAPaul MayeFRACenter-South West06:57:13  +  00:16:26=31,494 
67 ITAAntonio BevilacquaITAItaly06:57:13  +  00:16:26=31,494 
68 BELMaurice MeersmanBELAiglons Belges06:57:13  +  00:16:26=31,494 
69 ITAVittorio MagniITACadetti Italiens06:57:15  +  00:16:28=31,492 
70 BELRik RendersBELAiglons Belges06:57:15  +  00:16:28=31,492 
71 FRALucien LaukFRAParis06:57:15  +  00:16:28=31,492 
72 FRAFrancois HelaryFRAIle De France-North East06:59:14  +  00:18:27=31,343 
73 BELVictor JolyINTInternations07:00:00  +  00:19:13=31,286 
74 ITAVittorio SeghezziITACadetti Italiens07:00:05  +  00:19:18=31,280 
75 FRAMaurice CarpentierFRAWest07:00:05  +  00:19:18=31,280 
76 BELNorbert CallensBELBelgium07:00:05  +  00:19:18=31,280 
77 NEDBernard FrankenINTHolland-Luxembourg07:00:05  +  00:19:18=31,280 
78 BELFlorent MathieuBELBelgium07:00:05  +  00:19:18=31,280 
79 FRAJean-Marie GoasmatFRAWest07:00:05  +  00:19:18=31,280 
80 ITAEnzo CoppiniITACadetti Italiens07:00:05  +  00:19:18=31,280 
81 SUIRoger AeschlimannINTInternations07:06:12  +  00:25:25=30,831 
82 FRARaymond GueganFRAWest07:07:40  +  00:26:53=30,725 
83 FRAMaurice De MuerFRAIle De France-North East07:10:22  +  00:29:35=30,532 
84 FRADaniel ThuayreFRAIle De France-North East07:10:22  +  00:29:35=30,532 
85 FRALucien LaukFRAParis07:10:22  +  00:29:35=30,532 
86 BELFlorent RondeléBELAiglons Belges07:12:21  +  00:31:34=30,392 
87 LUXWilly KempINTHolland-Luxembourg07:12:21  +  00:31:34=30,392 
88 FRARoger ChupinFRAWest07:12:39  +  00:31:52=30,371 
89 FRARobert BonnaventureFRAWest07:13:19  +  00:32:32=30,324 
90 LUXRené BieverINTHolland-Luxembourg07:15:34  +  00:34:47=30,168 
91 BELAlbert RamonBELBelgium07:15:34  +  00:34:47=30,168 
92 BELAndré DeclerckBELBelgium07:23:10  +  00:42:23=29,650 
93 FRAEdouard MullerFRAIle De France-North East07:41:42  +  01:00:55=28,460 
94 FRALouis DeprezFRAIle De France-North East07:42:22  +  01:01:35=28,419 

Withdrawls: 6
 
Rider
Team
Reason
16  NEDFrans PauwelsINTHolland-LuxembourgDid not finish
39  ITAVincenzo RosselloITAItalyDid not finish
44  ITAÉdouard FachleitnerFRAFranceDid not finish
45  FRAEmile IdéeFRAFranceDid not finish
60  BELAdolf VerschuerenBELAiglons BelgesDid not finish
74  FRARoger LevequeFRACenter-South WestDid not finish

Todays birthdays.

1886  Giuseppe Santhia
1907  Allegro Grandi
1936  Anton van der Steen
1952  Glauco Santoni
1957  Antonio Ferretti
1963  Silvio Martinello
1967  Alvaro Mejia
1972  Paul Van Hyfte
1984  Aurélien Passeron




Visits: